Location: Fishcreek Rd Observing Site
(41.1865°N, 81.4271°W)
Time: 09:47:40
(UTC-04:00)

Iridium 75 - Visible Passes

Search period start: 23 June 2017 00:00
Search period end: 03 July 2017 00:00
Orbit: 776 x 779 km, 86.4° (Epoch: 22 June)

Date Brightness Start Highest point End Pass type
(mag) Time Alt. Az. Time Alt. Az. Time Alt. Az.
23 Jun 7.1 22:42:12 10° SSW 22:47:09 43° W 22:52:08 10° N visible
24 Jun 6.2 22:08:20 10° S 22:13:33 80° W 22:18:47 10° N visible
25 Jun 6.2 21:34:59 10° SSE 21:40:04 56° E 21:45:10 10° NNE visible
25 Jun 8.6 23:17:50 10° WSW 23:21:10 17° WNW 23:24:31 10° NW visible
26 Jun 7.8 22:42:47 10° SW 22:47:20 30° W 22:51:55 10° NNW visible
27 Jun 6.7 22:08:34 10° SSW 22:13:40 55° W 22:18:48 10° N visible
28 Jun 6.0 21:34:54 10° S 21:40:06 81° E 21:45:20 10° N visible
28 Jun 8.9 23:19:42 10° W 23:21:29 12° WNW 23:23:17 10° NW visible
29 Jun 8.4 22:43:39 10° SW 22:47:35 21° WNW 22:51:32 10° NNW visible
30 Jun 7.5 22:09:00 10° SSW 22:13:49 38° W 22:18:41 10° NNW visible
01 Jul 6.4 21:35:00 10° S 21:40:12 71° W 21:45:24 10° N visible
02 Jul 8.8 22:44:57 10° WSW 22:47:53 15° WNW 22:50:49 10° NW visible
